Weather History for Cape Girardeau, MO

Change the Weather History Date:

Sunday, December 23, 2012

  Actual Average Record
Temperature  
Mean Temperature 45 °F 34 °F  
Max Temperature 57 °F 43 °F 63 °F (1982)
Min Temperature 33 °F 25 °F -9 °F (1989)
Degree Days  
Heating Degree Days 20 31  
Month to date heating degree days 414 649  
Since 1 July heating degree days 1353 1500  
Cooling Degree Days 0 0  
Month to date cooling degree days 0 0  
Year to date cooling degree days 1784 1453  
Moisture  
Dew Point 41 °F    
Average Humidity 72    
Maximum Humidity 89    
Minimum Humidity 54    
Precipitation  
Precipitation 0.00 in 0.14 in 0.93 in (1979)
Month to date precipitation 1.26 3.25  
Year to date precipitation 26.54 45.81  
Sea Level Pressure  
Sea Level Pressure 29.93 in    
Wind  
Wind Speed 6 mph (South)    
Max Wind Speed 13 mph    
Max Gust Speed 15 mph    
Visibility 10 miles    
Events      
T = Trace of Precipitation, MM = Missing Value Source: NWS Daily Summary

Daily Weather History Graph

Daily Weather History Graph

Search for Another Location

Airport:

Trip Planner

Search our weather history database for the weather conditions in past years. The results will help you decide how hot, cold, wet, or windy it might be!

Date:

Astronomy

Dec. 23, 2012 Rise Set
Actual Time 7:09 AM CST 4:45 PM CST
Civil Twilight 6:40 AM CST 5:14 PM CST
Nautical Twilight 6:07 AM CST 5:47 PM CST
Astronomical Twilight 5:36 AM CST 6:19 PM CST
Moon 1:34 PM CST (12/23) 2:55 AM CST (12/23)
Length of Visible Light 10h 34m
Length of Day
9h 36m
Waxing Gibbous, 82% of the Moon is Illuminated
Dec 23
Waxing Gibbous
Dec 28
Full
Jan 4
Last Quarter
Jan 11
New
Jan 18
First Quarter

Hourly Weather History & Observations

Time (CST) Temp. Windchill Dew Point Humidity Pressure Visibility Wind Dir Wind Speed Gust Speed Precip Events Conditions
12:53 AM 39.9 °F 35.1 °F 30.9 °F 70% 30.03 in 10.0 mi South 6.9 mph - N/A   Clear
1:53 AM 39.0 °F 34.0 °F 32.0 °F 76% 30.03 in 10.0 mi SSW 6.9 mph - N/A   Clear
2:53 AM 39.9 °F 35.1 °F 32.0 °F 73% 30.02 in 10.0 mi SSW 6.9 mph - N/A   Clear
3:53 AM 39.9 °F 35.1 °F 32.0 °F 73% 30.00 in 10.0 mi SSW 6.9 mph - N/A   Clear
4:53 AM 39.0 °F 34.8 °F 32.0 °F 76% 30.00 in 10.0 mi SSW 5.8 mph - N/A   Clear
5:53 AM 37.9 °F 34.4 °F 30.9 °F 76% 30.00 in 10.0 mi South 4.6 mph - N/A   Clear
6:53 AM 37.0 °F - 30.9 °F 79% 30.00 in 10.0 mi Calm Calm - N/A   Clear
7:53 AM 36.0 °F - 32.0 °F 86% 30.01 in 10.0 mi Calm Calm - N/A   Partly Cloudy
8:53 AM 42.1 °F - 34.0 °F 73% 30.01 in 10.0 mi Calm Calm - N/A   Partly Cloudy
9:53 AM 48.0 °F - 35.1 °F 61% 30.00 in 10.0 mi West 6.9 mph - N/A   Clear
10:53 AM 51.1 °F - 36.0 °F 56% 29.98 in 10.0 mi West 6.9 mph - N/A   Clear
11:53 AM 54.0 °F - 39.9 °F 59% 29.94 in 10.0 mi SW 4.6 mph - N/A   Clear
12:53 PM 55.9 °F - 42.1 °F 60% 29.91 in 10.0 mi SSE 8.1 mph - N/A   Clear
1:53 PM 57.0 °F - 44.1 °F 62% 29.89 in 10.0 mi South 8.1 mph - N/A   Clear
2:53 PM 55.9 °F - 46.0 °F 69% 29.87 in 10.0 mi South 9.2 mph - N/A   Clear
3:53 PM 55.0 °F - 46.9 °F 74% 29.88 in 10.0 mi South 5.8 mph - N/A   Partly Cloudy
4:53 PM 53.1 °F - 46.9 °F 80% 29.88 in 10.0 mi South 6.9 mph - N/A   Overcast
5:53 PM 51.1 °F - 46.0 °F 83% 29.89 in 10.0 mi SSE 5.8 mph - N/A   Overcast
6:53 PM 51.1 °F - 46.9 °F 86% 29.89 in 10.0 mi South 3.5 mph - N/A   Overcast
7:53 PM 52.0 °F - 46.9 °F 83% 29.88 in 10.0 mi SSW 12.7 mph - N/A   Overcast
8:53 PM 51.1 °F - 46.9 °F 86% 29.87 in 10.0 mi South 6.9 mph - N/A   Overcast
9:08 PM 50.0 °F - 46.4 °F 87% 29.87 in 10.0 mi South 4.6 mph - N/A   Overcast
9:39 PM 50.0 °F - 46.4 °F 87% 29.86 in 10.0 mi South 3.5 mph - N/A   Overcast
9:53 PM 50.0 °F - 46.9 °F 89% 29.86 in 10.0 mi South 4.6 mph - N/A   Overcast
10:09 PM 50.0 °F - 46.4 °F 87% 29.85 in 10.0 mi South 3.5 mph - N/A   Overcast
10:36 PM 50.0 °F - 46.4 °F 87% 29.85 in 10.0 mi Calm Calm - N/A   Overcast
10:53 PM 50.0 °F - 46.9 °F 89% 29.84 in 10.0 mi Calm Calm - N/A   Overcast
11:53 PM 50.0 °F - 46.9 °F 89% 29.83 in 7.0 mi SSE 3.5 mph - N/A   Overcast